Time_in_sec,Mx,My,Mz
1326900425.56063962,-0.54555917,0.50600445,-0.68408746
1326900425.61282563,-0.54560226,0.50792319,-0.68460971
1326900425.66150498,-0.54508615,0.50600708,-0.68482125
1326900425.71353602,-0.54520446,0.50658029,-0.68230015
1326900425.76151586,-0.54505992,0.50636029,-0.68431598
1326900425.82154536,-0.54422861,0.50646049,-0.68325883
1326900425.86260343,-0.54542243,0.50982267,-0.68347412
1326900425.91348267,-0.54495883,0.50624484,-0.68481600
1326900425.96053433,-0.54465026,0.50527716,-0.68403286
1326900426.01364589,-0.54568285,0.50624365,-0.68396932
1326900426.06154394,-0.54608428,0.50710958,-0.68640226
1326900426.11368513,-0.54518890,0.50731695,-0.68420321
1326900426.16151953,-0.54485518,0.50586689,-0.68303555
1326900426.21264482,-0.54488492,0.50599194,-0.68354440
1326900426.26067734,-0.54600328,0.50590008,-0.68512350
1326900426.31348157,-0.54425395,0.50598764,-0.68376321
1326900426.36130142,-0.54736525,0.50676352,-0.68634290
1326900426.41253138,-0.54625434,0.50494629,-0.68513042
1326900426.46368670,-0.54508626,0.50505185,-0.68494105
1326900426.51262593,-0.54704422,0.50517327,-0.68314976
1326900426.56152797,-0.54529017,0.50542569,-0.68622059
1326900426.61264682,-0.54519081,0.50660086,-0.68432480
1326900426.66142917,-0.54587960,0.50566089,-0.68524170
1326900426.71585917,-0.54689240,0.50590718,-0.68491876
1326900426.76152301,-0.54664791,0.50483227,-0.68527758
1326900426.81300926,-0.54520977,0.50624627,-0.68470305
1326900426.86157227,-0.54529268,0.50673968,-0.68610340
1326900426.91247630,-0.54391354,0.50647002,-0.68450755
1326900426.96048117,-0.54639775,0.50590569,-0.68527156
1326900427.01327634,-0.54635262,0.50565827,-0.68450791
1326900427.06056595,-0.54623622,0.50542045,-0.68475306
1326900427.11348391,-0.54523033,0.50804132,-0.68484348
1326900427.16051173,-0.54518437,0.50662285,-0.68647647
1326900427.21311140,-0.54558349,0.50636733,-0.68447107
1326900427.26950645,-0.54461664,0.50648803,-0.68555856
1326900427.31316900,-0.54513365,0.50852370,-0.68534791
1326900427.36153173,-0.54442441,0.50566190,-0.68680805
1326900427.41268730,-0.54465008,0.50613612,-0.68619078
1326900427.46061778,-0.54575473,0.50711638,-0.68739700
1326900427.51348090,-0.54576421,0.50458741,-0.68560755
1326900427.56136751,-0.54545975,0.50603187,-0.68686700
1326900427.61316299,-0.54428893,0.50673395,-0.68655509
1326900427.66114593,-0.54479992,0.50602210,-0.68657786
1326900427.71359372,-0.54571456,0.50469738,-0.68471956
1326900427.76154923,-0.54568803,0.50686485,-0.68625242
1326900427.81350613,-0.54572880,0.50555909,-0.68713140
1326900427.86057377,-0.54423660,0.50648516,-0.68566447
1326900427.91380548,-0.54447412,0.50564820,-0.68541831
1326900427.96065021,-0.54588848,0.50580513,-0.68764818
1326900428.01352525,-0.54601336,0.50434971,-0.68549281
1326900428.06149912,-0.54421121,0.50791323,-0.68504030
1326900428.11262918,-0.54694110,0.50567764,-0.68580586
1326900428.16152740,-0.54482245,0.50614578,-0.68695968
1326900428.21273065,-0.54504943,0.50397015,-0.68442506
1326900428.26066184,-0.54581636,0.50579143,-0.68637836
1326900428.31348300,-0.54448569,0.50720268,-0.68542993
1326900428.36064506,-0.54553753,0.50494885,-0.68610406
1326900428.41252518,-0.54445958,0.50554919,-0.68744206
1326900428.46152639,-0.54596597,0.50758785,-0.68652576
1326900428.51364923,-0.54524255,0.50386435,-0.68557405
1326900428.56061363,-0.54540735,0.50673836,-0.68585652
1326900428.61348820,-0.54478180,0.50649631,-0.68620050
1326900428.66073322,-0.54493254,0.50650179,-0.68658847
1326900428.71348596,-0.54462773,0.50515348,-0.68365103
1326900428.76155233,-0.54482144,0.50698149,-0.68683898
1326900428.81353807,-0.54399186,0.50732076,-0.68578362
1326900428.86951184,-0.54535055,0.50579542,-0.68723911
1326900428.91299582,-0.54369652,0.50910205,-0.68489408
1326900428.96453667,-0.54487729,0.50770855,-0.68773317
1326900429.01353931,-0.54553133,0.50411177,-0.68609780
1326900429.06167173,-0.54512221,0.50496244,-0.68785369
1326900429.11351252,-0.54503554,0.50590122,-0.68621010
1326900429.16062927,-0.54483676,0.50710380,-0.68709385
1326900429.20975089,-0.54553133,0.50411177,-0.68609780
1326900429.26953840,-0.54444510,0.50650167,-0.68706828
1326900429.30964470,-0.54568517,0.50841659,-0.68601006
1326900429.36263418,-0.54520345,0.50531298,-0.68697453
1326900429.41272879,-0.54603034,0.50566643,-0.68562967
1326900429.46182847,-0.54565620,0.50831485,-0.68777984
1326900429.50954437,-0.54613501,0.50626022,-0.68513322
1326900429.56062794,-0.54400557,0.50624871,-0.68615651
1326900429.61255145,-0.54617739,0.50614887,-0.68589419
1326900429.66155148,-0.54507881,0.50696093,-0.68457443
1326900429.71356297,-0.54586172,0.50422460,-0.68510395
1326900429.76225805,-0.54481769,0.50841367,-0.68659574
1326900429.81343555,-0.54560870,0.50579822,-0.68725318
1326900429.86051106,-0.54595155,0.50653362,-0.68866938
1326900429.91350842,-0.54408050,0.50566590,-0.68754882
1326900429.96150470,-0.54468423,0.50685912,-0.68670404
1326900430.01255393,-0.54504043,0.50372958,-0.68429631
1326900430.06152391,-0.54530632,0.50566763,-0.68647635
1326900430.11254740,-0.54569715,0.50615013,-0.68650097
1326900430.16056180,-0.54435563,0.50803697,-0.68530214
1326900430.21286058,-0.54703689,0.50507563,-0.68530047
1326900430.26061940,-0.54433930,0.50769883,-0.68732411
1326900430.31051755,-0.54413021,0.50565225,-0.68615907
1326900430.36052847,-0.54611683,0.50663817,-0.68703359
1326900430.41252375,-0.54554385,0.50483060,-0.68623018
1326900430.46331263,-0.54572588,0.50711089,-0.68688911
1326900430.51352549,-0.54533345,0.50648546,-0.68458492
1326900430.56157494,-0.54523110,0.50701314,-0.68951964
1326900430.61315250,-0.54381675,0.50685614,-0.68728977
1326900430.66154742,-0.54539204,0.50661600,-0.68560165
1326900430.71348047,-0.54629129,0.50507271,-0.68576622
1326900430.76061964,-0.54601300,0.50721544,-0.68513334
1326900430.81357360,-0.54580295,0.50495303,-0.68624514
1326900430.87256050,-0.54627651,0.50688422,-0.68755031
1326900430.91353083,-0.54591060,0.50974983,-0.68755072
1326900430.96155882,-0.54495949,0.50617188,-0.68937230
1326900431.01296473,-0.54679585,0.50438279,-0.68794060
1326900431.06105757,-0.54542148,0.50750381,-0.69054610
1326900431.11348081,-0.54497504,0.50543523,-0.68746930
1326900431.16054201,-0.54609305,0.50820911,-0.68868893
1326900431.21305633,-0.54572159,0.50555772,-0.68700445
1326900431.26151323,-0.54550302,0.50604010,-0.68762887
1326900431.31273365,-0.54552937,0.50473160,-0.68825394
1326900431.36152053,-0.54569525,0.50686622,-0.68637937
1326900431.41264987,-0.54606354,0.50617355,-0.68841976
1326900431.46108413,-0.54426724,0.50672984,-0.68617415
1326900431.51274920,-0.54630649,0.50509876,-0.68829882
1326900431.56153393,-0.54473829,0.50734705,-0.68759650
1326900431.61354923,-0.54544622,0.50614870,-0.68661392
1326900431.66098309,-0.54573298,0.50701600,-0.68929380
1326900431.71297789,-0.54599226,0.50627941,-0.68715084
1326900431.76152873,-0.54424542,0.50758469,-0.68795109
1326900431.81351614,-0.54566377,0.50545049,-0.68826634
1326900431.86166430,-0.54436928,0.50591338,-0.68807262
1326900431.91347980,-0.54718286,0.50629753,-0.68772209
1326900431.96151042,-0.54553896,0.50700223,-0.68814391
1326900432.01354027,-0.54580468,0.50519216,-0.68624693
1326900432.06949735,-0.54488993,0.50747216,-0.68798536
1326900432.11252618,-0.54445726,0.51008630,-0.68684113
1326900432.16149902,-0.54473817,0.50725079,-0.68987423
1326900432.21299911,-0.54621726,0.50367206,-0.68916988
1326900432.26151061,-0.54517049,0.50855392,-0.68826145
1326900432.31377745,-0.54662049,0.50582868,-0.68920708
1326900432.36151671,-0.54423374,0.50698543,-0.68781966
1326900432.41259003,-0.54531366,0.50783986,-0.68860620
1326900432.46159387,-0.54457551,0.50688326,-0.68931860
1326900432.51045799,-0.54527372,0.50351137,-0.68616891
1326900432.56152177,-0.54446810,0.50688601,-0.68969244
1326900432.60948253,-0.54490215,0.50642163,-0.69059861
1326900432.66056681,-0.54519635,0.50748259,-0.68885040
1326900432.70948958,-0.54670942,0.50472367,-0.68638211
1326900432.76117921,-0.54562855,0.50773412,-0.68963498
1326900432.80947542,-0.54452604,0.50603819,-0.68855059
1326900432.86152124,-0.54420352,0.50795639,-0.68943250
1326900432.90950942,-0.54539776,0.50558764,-0.69036657
1326900432.96453857,-0.54442668,0.50773859,-0.69112653
1326900433.01299167,-0.54534131,0.50641388,-0.68926823
1326900433.06049252,-0.54656512,0.50799066,-0.69023198
1326900433.10950804,-0.54580706,0.50631362,-0.69068521
1326900433.16133237,-0.54484195,0.50772500,-0.68937689
1326900433.21251059,-0.54514122,0.50460786,-0.68823195
1326900433.26133323,-0.54543680,0.50762618,-0.69080091
1326900433.31354332,-0.54452622,0.50570446,-0.69086438
1326900433.36153913,-0.54533291,0.50810719,-0.69117844
1326900433.41351557,-0.54476351,0.50677794,-0.69037855
1326900433.46247745,-0.54670054,0.50787383,-0.69036514
1326900433.51348901,-0.54510593,0.50567579,-0.68747813
1326900433.56237340,-0.54540694,0.50845635,-0.69017231
1326900433.61324239,-0.54552436,0.50785846,-0.69004786
1326900433.66904116,-0.54434019,0.50676686,-0.68972260
1326900433.71255755,-0.54401213,0.50925630,-0.68816578
1326900433.76151562,-0.54517472,0.50642717,-0.69086659
1326900433.81282544,-0.54525518,0.50570303,-0.69010651
1326900433.86105251,-0.54512513,0.50653714,-0.68997878
1326900433.91359115,-0.54523253,0.50653440,-0.68960494
1326900433.96107483,-0.54577863,0.50676131,-0.68786454
1326900434.01003551,-0.54443771,0.50473136,-0.68942243
1326900434.06952167,-0.54538500,0.50677902,-0.68999463
1326900434.11265326,-0.54469526,0.50950933,-0.68883747
1326900434.16150737,-0.54476327,0.50606018,-0.69046193
1326900434.21352482,-0.54580426,0.50342351,-0.68872821
1326900434.26064754,-0.54618639,0.50655383,-0.69054282
1326900434.31353498,-0.54411554,0.50483572,-0.68826669
1326900434.36063528,-0.54344285,0.50687617,-0.68976313
1326900434.41253877,-0.54575771,0.50678051,-0.68976182
1326900434.47257900,-0.54572588,0.50823015,-0.69128895
1326900434.51359010,-0.54427552,0.50892514,-0.69058222
1326900434.56152773,-0.54356748,0.50627983,-0.68976569
1326900434.61418748,-0.54445720,0.50631016,-0.69183916
1326900434.66064048,-0.54418921,0.50594735,-0.69169545
1326900434.71349931,-0.54643196,0.50583798,-0.69042456
1326900434.76148057,-0.54531097,0.50642997,-0.69100058
1326900434.81252456,-0.54519266,0.50690812,-0.69112408
1326900434.86156249,-0.54531175,0.50750452,-0.69088167
1326900434.91254544,-0.54565918,0.50692743,-0.69254160
1326900434.96056294,-0.54485977,0.50653291,-0.68983775
1326900435.01350784,-0.54580641,0.50655103,-0.69064867
1326900435.06157875,-0.54618639,0.50655383,-0.69054282
1326900435.11351347,-0.54596168,0.50619924,-0.69116086
1326900435.16062832,-0.54286253,0.50688148,-0.69087058
1326900435.21254969,-0.54643381,0.50512207,-0.69054615
1326900435.26953268,-0.54523760,0.50811052,-0.69176775
1326900435.30956054,-0.54470950,0.50941581,-0.69136864
1326900435.36051369,-0.54540563,0.50656736,-0.69265187
1326900435.41254997,-0.54609072,0.50514936,-0.69356495
1326900435.46060896,-0.54389215,0.50748909,-0.69080436
1326900435.50952077,-0.54535902,0.50522214,-0.68972909
1326900435.56051469,-0.54490113,0.50620586,-0.69287497
1326900435.60965347,-0.54434800,0.50607383,-0.69221121
1326900435.66950274,-0.54462129,0.50715393,-0.69236022
1326900435.70969296,-0.54425579,0.50820512,-0.69032300
1326900435.76056457,-0.54436785,0.50583881,-0.69259024
1326900435.80952382,-0.54420185,0.50571102,-0.69194758
1326900435.86051130,-0.54399043,0.50714970,-0.69257897
1326900435.90949583,-0.54460776,0.50621945,-0.69450426
1326900435.96053267,-0.54605085,0.50657439,-0.69268698
1326900436.01276803,-0.54488164,0.50462699,-0.69045824
1326900436.06153178,-0.54494965,0.50788641,-0.69352221
1326900436.10952902,-0.54441392,0.50525069,-0.69347447
1326900436.16056609,-0.54440862,0.50558466,-0.69107205
1326900436.20934153,-0.54531741,0.50535673,-0.69124639
1326900436.26056862,-0.54353827,0.50808811,-0.69129550
1326900436.30951905,-0.54366046,0.50522310,-0.69153500
1326900436.36053276,-0.54533857,0.50812972,-0.69354510
1326900436.41255450,-0.54396075,0.50702465,-0.69207031
1326900436.46151066,-0.54474401,0.50727350,-0.69224119
1326900436.51309395,-0.54671890,0.50479501,-0.69334346
1326900436.56055975,-0.54515374,0.50740141,-0.69264406
1326900436.61309242,-0.54428500,0.50534552,-0.69119018
1326900436.66056681,-0.54542434,0.50812286,-0.69279039
1326900436.71347880,-0.54625940,0.50668710,-0.69181329
1326900436.76150894,-0.54383701,0.50774050,-0.69206864
1326900436.81367087,-0.54436874,0.50595838,-0.69259113
1326900436.86951637,-0.54430181,0.50656569,-0.69360423
1326900436.91264987,-0.54361206,0.50929600,-0.69244707
1326900436.96153784,-0.54346097,0.50535083,-0.69253749
1326900437.01250172,-0.54546356,0.50571954,-0.69151002
1326900437.06092501,-0.54509765,0.50753325,-0.69390744
1326900437.11269665,-0.54408270,0.50606960,-0.69207019
1326900437.16054487,-0.54576379,0.50646985,-0.69444233
1326900437.21351695,-0.54514951,0.50489360,-0.69287920
1326900437.26952815,-0.54482538,0.50666893,-0.69148207
1326900437.31253529,-0.54432982,0.50750291,-0.69171411
1326900437.36149263,-0.54358977,0.50726229,-0.69230491
1326900437.41288114,-0.54501313,0.50584584,-0.69262540
1326900437.46052384,-0.54562145,0.50572646,-0.69202489
1326900437.51351500,-0.54493213,0.50463659,-0.69134694
1326900437.56078696,-0.54560769,0.50775331,-0.69153225
1326900437.61276817,-0.54481727,0.50654799,-0.69135422
1326900437.66544175,-0.54528946,0.50547081,-0.69073951
1326900437.71351528,-0.54525506,0.50665808,-0.68998671
1326900437.76250625,-0.54336339,0.50676483,-0.69064391
1326900437.81355262,-0.54463875,0.50570154,-0.69057918
1326900437.86051893,-0.54532528,0.50738776,-0.69113463
1326900437.91357231,-0.54308909,0.50652015,-0.69037414
1326900437.96167397,-0.54556453,0.50679004,-0.69089031
1326900438.01257658,-0.54426765,0.50689417,-0.69069397
1326900438.06298470,-0.54411077,0.50605178,-0.69029987
1326900438.11268210,-0.54479921,0.50702208,-0.69097692
1326900438.16158032,-0.54580563,0.50547642,-0.69076759
1326900438.20953679,-0.54607111,0.50557685,-0.68863136
1326900438.26173472,-0.54548067,0.50713223,-0.68936956
1326900438.30949998,-0.54531652,0.50523722,-0.69124550
1326900438.36250544,-0.54482806,0.50702757,-0.69148475
1326900438.40962625,-0.54482919,0.50628835,-0.68932819
1326900438.46950006,-0.54558164,0.50715142,-0.69114691
1326900438.51050186,-0.54396975,0.50831634,-0.68980199
1326900438.56151128,-0.54408634,0.50664407,-0.68979651
1326900438.60950661,-0.54472697,0.50691211,-0.69198459
1326900438.66156816,-0.54334623,0.50630718,-0.69266456
1326900438.70948672,-0.54402876,0.50567806,-0.68890071
1326900438.76052451,-0.54584706,0.50620061,-0.69140774
1326900438.81350303,-0.54451841,0.50679940,-0.69285834
1326900438.86301994,-0.54478014,0.50833166,-0.69047892
1326900438.90949655,-0.54557896,0.50679278,-0.69114423
1326900438.96453261,-0.54446161,0.50690794,-0.69184363
1326900439.01325059,-0.54443145,0.50389451,-0.68941617
1326900439.06258321,-0.54530644,0.50678724,-0.69087631
1326900439.10953569,-0.54524326,0.50596273,-0.69213253
1326900439.16154313,-0.54519355,0.50597638,-0.69352198
1326900439.21360111,-0.54471844,0.50390279,-0.68993807
1326900439.26151562,-0.54584682,0.50705940,-0.69356519
1326900439.31340504,-0.54364127,0.50748765,-0.69091725
1326900439.36230922,-0.54414570,0.50679791,-0.69309115
1326900439.40958190,-0.54391855,0.50522590,-0.69154906
1326900439.46153474,-0.54412317,0.50667423,-0.69270939
1326900439.50950098,-0.54597896,0.50465059,-0.69165707
1326900439.56111312,-0.54531884,0.50740969,-0.69328582
1326900439.61366415,-0.54441935,0.50501293,-0.69359964
1326900439.66152835,-0.54432994,0.50654787,-0.69183391
1326900439.71253681,-0.54520822,0.50617164,-0.68922144
1326900439.76062441,-0.54521251,0.50667316,-0.69150311
1326900439.81254530,-0.54409367,0.50463915,-0.69244033
1326900439.86052728,-0.54616463,0.50645345,-0.69243920
1326900439.91352272,-0.54439050,0.50605875,-0.69069475
1326900439.96108413,-0.54440230,0.50570285,-0.69094598
1326900440.01253033,-0.54532993,0.50607544,-0.69137871
1326900440.06951451,-0.54601634,0.50871664,-0.69181442
1326900440.11365438,-0.54458767,0.50941581,-0.69148856
1326900440.16152668,-0.54401690,0.50593770,-0.69092667
1326900440.21275759,-0.54618204,0.50500107,-0.69065815
1326900440.26066518,-0.54435158,0.50655198,-0.69221473
1326900440.31349516,-0.54642105,0.50526214,-0.69257128
1326900440.36165333,-0.54397517,0.50702739,-0.69232422
1326900440.41251349,-0.54442203,0.50642288,-0.69120526
1326900440.47278953,-0.54421729,0.50592953,-0.68992513
1326900440.51260138,-0.54532975,0.50903672,-0.68874210
1326900440.56152081,-0.54372871,0.50762367,-0.69244158
1326900440.61348891,-0.54534894,0.50572091,-0.69175690
1326900440.66054869,-0.54378396,0.50641721,-0.69129705
1326900440.71349692,-0.54472262,0.50535935,-0.69209993
1326900440.76059175,-0.54346448,0.50688028,-0.69014400
1326900440.81270742,-0.54612333,0.50477427,-0.69191891
1326900440.86154580,-0.54451400,0.50620162,-0.69285387
1326900440.91268086,-0.54389960,0.50558043,-0.69117087
1326900440.96151018,-0.54567903,0.50774372,-0.69052368
1326900441.01313829,-0.54515862,0.50523031,-0.69073069
1326900441.06053638,-0.54376864,0.50629491,-0.69104224
1326900441.11353469,-0.54540950,0.50523174,-0.69061780
1326900441.16052413,-0.54482174,0.50714576,-0.69135869
1326900441.20961142,-0.54527426,0.50439346,-0.69060451
1326900441.26156235,-0.54399335,0.50664955,-0.69042426
1326900441.31262636,-0.54403484,0.50641865,-0.69118416
1326900441.36055160,-0.54442734,0.50714016,-0.69121063
1326900441.41253138,-0.54658628,0.50536668,-0.69093585
1326900441.46051598,-0.54564399,0.50690138,-0.69000959
1326900441.50955653,-0.54514062,0.50474936,-0.69047320
1326900441.56051922,-0.54406273,0.50725961,-0.69157130
1326900441.60957527,-0.54496908,0.50581431,-0.68958557
1326900441.66951728,-0.54616475,0.50654972,-0.69016194
1326900441.71134710,-0.54491806,0.50952858,-0.69049489
1326900441.76056457,-0.54632366,0.50572115,-0.69079751
1326900441.81290698,-0.54549962,0.50572640,-0.69214481
1326900441.86055899,-0.54350680,0.50772399,-0.69078505
1326900441.90949798,-0.54537255,0.50510532,-0.68998212
1326900441.96057296,-0.54549605,0.50629950,-0.68974417
1326900442.00968289,-0.54342133,0.50591701,-0.68950212
1326900442.05998659,-0.54591852,0.50628722,-0.68812191
1326900442.10952973,-0.54533905,0.50536084,-0.69162726
1326900442.16149139,-0.54414940,0.50737238,-0.69081748
1326900442.20949078,-0.54632843,0.50450510,-0.68876433
1326900442.26051927,-0.54665309,0.50571436,-0.68980294
1326900442.30951929,-0.54474694,0.50677335,-0.69008642
1326900442.36112785,-0.54381198,0.50735444,-0.68940693
1326900442.41352248,-0.54529047,0.50568658,-0.68846315
1326900442.46953154,-0.54592550,0.50714743,-0.69040626
1326900442.50952911,-0.54414195,0.51033229,-0.68805391
1326900442.56149220,-0.54435724,0.50545549,-0.69018251
1326900442.60954380,-0.54505122,0.50523299,-0.69110453
1326900442.66050577,-0.54546368,0.50581580,-0.68923277
1326900442.70952487,-0.54621112,0.50414777,-0.68900853
1326900442.76053286,-0.54604656,0.50607288,-0.69040525
1326900442.81194067,-0.54510170,0.50629389,-0.68959612
1326900442.86149096,-0.54517561,0.50654674,-0.69086748
1326900442.91109705,-0.54625344,0.50499147,-0.68964958
1326900442.96153307,-0.54529655,0.50642723,-0.69074667
1326900443.01296449,-0.54532206,0.50509572,-0.68909347
1326900443.06063247,-0.54440039,0.50641876,-0.69082439
1326900443.11351418,-0.54598153,0.50596428,-0.69153994
1326900443.16054106,-0.54381728,0.50807172,-0.68941230
1326900443.21356106,-0.54485661,0.50424093,-0.68779659
1326900443.26096940,-0.54566282,0.50750190,-0.69026798
1326900443.31254053,-0.54463267,0.50496089,-0.68829572
1326900443.36592722,-0.54427767,0.50629920,-0.69094342
1326900443.41348124,-0.54533309,0.50366521,-0.68946356
1326900443.46049643,-0.54368854,0.50520527,-0.68976468
